Location: Beaver Brook Station
(42.3793°N, 71.2203°W)
Time: 05:23:56
(UTC+00:00)

X-37B - Pass Details

Date: 30 January 2021
Orbit: 383 x 391 km, 45.0° (Epoch: 27 February)

Event Time Altitude Azimuth Distance (km) Brightness Sun altitude
Rises 00:34:54 0° 280° (W) 2,275 5.7 -29.5°
Reaches altitude 10° 00:37:24 10° 260° (W) 1,418 4.3 -30.0°
Enters shadow 00:37:43 12° 256° (WSW) 1,329 4.1 -30.0°
